Theta_e
317 317 318 317 317 316 316 315 314 313 312 311 309 309 308 308 309 309 308 308 308 308 308 307 307 306 306 306 306 306 307 307 309 310 313 317 319 321 323 324 327 327 329
316 317 317 316 316 315 314 313 312 312 311 310 309 309 310 309 309 309 309 308 308 308 308 308 307 307 307 307 307 306 306 305 306 307 308 311 314 317 319 321 326 327 327
314 315 315 315 315 314 313 312 312 311 310 310 310 310 310 309 309 309 309 309 308 308 307 307 307 307 308 307 307 306 306 306 305 307 308 307 310 312 313 316 323 325 328
312 312 312 313 314 313 312 311 310 311 309 308 308 307 307 308 308 307 308 307 307 307 306 306 305 306 307 306 306 306 306 305 306 305 306 307 308 310 312 313 317 324 327
310 310 309 310 310 310 310 310 309 308 307 307 307 306 307 307 308 308 308 308 308 308 308 308 307 307 307 306 306 307 307 305 305 305 304 304 305 306 307 309 315 317 325
306 305 305 306 306 306 306 307 306 306 306 306 306 306 307 308 309 309 309 309 308 308 307 307 307 307 307 307 307 307 308 307 306 305 304 303 304 304 305 306 309 315 323
302 302 302 302 302 303 304 305 306 306 306 306 306 308 308 309 309 309 309 306 305 306 306 307 307 307 307 307 307 307 307 306 305 305 305 304 305 304 305 307 309 313 315
299 299 299 299 300 301 303 304 306 306 306 307 307 307 307 307 308 308 304 303 304 305 306 306 306 307 308 308 307 307 307 306 306 305 305 304 304 304 305 306 307 310 313
296 296 296 297 299 300 302 304 305 305 306 307 307 306 305 306 306 302 301 299 301 302 303 306 304 304 306 306 306 307 307 307 306 307 306 305 305 306 307 307 308 313 319
295 294 295 297 298 300 301 302 303 305 305 306 306 304 305 305 300 299 298 296 298 300 307 308 308 306 307 308 305 305 307 307 307 306 306 306 306 306 306 306 307 312 314
294 294 294 295 297 299 300 301 302 304 304 302 301 302 301 298 298 297 295 294 296 297 299 303 307 311 313 311 308 304 306 308 308 307 307 307 307 307 309 309 309 309 311
295 293 293 295 296 298 299 299 299 299 298 299 299 297 296 296 296 294 295 296 299 297 301 305 310 312 314 313 310 307 304 305 306 307 308 307 308 308 308 308 309 311 311
295 294 293 294 295 297 296 295 295 295 295 296 296 293 293 294 294 293 295 299 303 300 305 308 309 309 311 314 312 309 308 303 304 306 307 307 308 308 309 309 310 310 312
295 294 294 294 293 294 295 294 293 292 292 293 293 292 291 293 292 291 292 297 297 302 304 305 306 306 307 310 313 314 311 309 307 306 306 306 307 308 309 310 312 314 317
295 295 294 295 295 294 294 294 293 292 291 291 292 291 291 291 290 290 292 295 295 299 301 301 302 304 303 304 305 307 313 313 309 308 307 309 310 311 312 314 317 319 319
296 294 294 295 294 294 293 294 293 292 291 290 290 291 290 290 290 290 292 294 294 296 298 299 299 299 301 299 301 300 302 305 311 311 310 310 311 314 315 317 318 321 321
294 293 294 295 295 294 294 293 293 293 292 290 289 290 290 289 289 290 291 293 292 293 294 295 296 296 298 296 297 297 297 299 302 313 311 311 312 313 315 317 319 320 321
293 293 293 294 293 293 294 293 293 292 291 290 289 289 289 289 289 289 289 290 291 291 291 293 293 293 295 293 292 293 294 295 296 302 314 315 315 316 318 318 318 321 321
291 291 291 291 291 291 290 290 291 290 291 290 289 288 288 288 288 288 288 289 289 290 290 291 290 291 292 291 290 291 291 292 293 295 298 305 315 318 319 320 322 322 321
290 290 290 289 289 289 288 288 289 289 288 288 288 286 286 287 286 287 287 288 288 288 289 289 289 289 290 289 288 289 289 290 291 292 294 297 303 315 321 322 322 321 321
289 288 288 288 287 287 287 286 286 287 287 286 287 286 285 285 285 285 285 286 287 287 288 288 288 288 288 288 287 287 287 288 288 289 291 294 300 311 317 322 321 322 321
288 287 286 286 286 285 285 284 284 285 285 285 285 285 284 284 284 283 284 284 284 285 286 286 287 286 287 286 285 286 286 286 286 287 290 293 299 312 317 319 323 322 320
286 286 285 285 285 284 283 283 283 283 283 283 283 283 284 283 283 282 282 282 283 283 284 284 285 284 284 285 283 284 284 284 284 286 288 292 302 306 316 317 322 320 319
286 285 285 285 285 284 283 282 282 282 282 282 282 282 283 282 282 281 281 281 281 281 282 282 283 282 282 283 282 282 283 283 285 287 291 295 299 303 315 316 319 317 314
286 285 285 285 285 284 283 282 282 282 282 282 282 282 282 281 281 280 280 280 280 280 280 281 281 281 281 282 281 282 282 284 285 289 291 294 297 300 308 316 320 318 315
287 286 285 285 285 283 282 282 282 282 282 282 282 282 282 280 280 279 279 279 279 279 279 279 279 280 280 281 281 281 281 282 286 290 291 292 294 296 299 311 320 319 317
Wind_Speed
11 9 9 10 8 8 7 5 5 4 6 9 12 14 14 14 14 16 19 20 22 23 24 26 27 27 27 27 26 24 23 22 15 25 25 23 25 29 31 37 38 38 39
13 8 7 6 4 4 4 4 4 5 6 10 12 14 16 16 17 19 21 21 23 26 26 24 26 25 28 30 29 28 27 25 22 16 26 27 26 23 23 28 31 34 35
13 11 6 3 2 2 2 2 3 5 7 8 10 13 16 17 18 19 21 21 20 20 22 24 28 26 26 27 28 30 29 27 26 24 23 26 27 26 28 30 30 32 32
10 12 14 12 7 5 3 3 4 3 5 9 12 15 17 16 19 21 19 22 24 24 25 26 28 29 29 30 28 29 27 26 24 22 22 21 21 21 22 22 28 29 31
10 13 16 13 12 10 10 8 7 10 11 13 14 16 17 19 19 21 23 25 27 29 30 31 31 33 33 34 30 29 26 25 24 22 20 20 18 18 21 21 23 24 31
12 13 11 11 12 14 12 11 13 13 13 15 17 19 19 19 19 20 22 28 30 27 30 31 32 33 35 37 38 40 37 31 28 25 22 19 21 18 22 22 22 19 8
12 12 13 13 14 15 13 13 13 15 16 16 18 19 21 22 22 23 26 26 28 29 29 29 30 32 34 35 35 38 38 39 38 33 27 28 24 23 25 23 20 19 20
14 14 15 15 15 15 13 12 14 15 17 17 19 20 20 23 22 24 28 29 28 28 29 31 30 31 32 34 32 30 30 33 36 33 34 37 32 31 31 30 27 24 27
15 15 14 14 15 14 12 14 15 17 16 18 18 21 23 23 22 26 28 29 27 30 29 33 31 33 35 34 29 31 30 32 31 32 34 36 36 31 29 27 22 17 8
16 16 13 12 13 11 14 15 16 15 16 19 19 21 20 21 29 27 27 27 25 27 36 36 37 34 39 40 33 27 27 32 28 27 25 30 32 36 35 36 29 19 13
16 15 10 11 11 11 13 15 15 14 15 15 18 18 20 27 30 29 30 28 23 29 27 32 35 42 41 36 37 32 29 31 29 29 25 25 26 25 25 27 28 28 22
15 16 13 10 10 11 12 13 14 13 16 18 17 21 26 29 28 31 33 32 30 24 27 32 36 41 37 28 26 21 28 31 29 24 20 22 24 25 28 28 27 25 28
12 17 15 12 11 12 13 16 15 16 17 16 15 20 22 26 28 33 35 35 32 33 29 29 32 37 41 26 21 13 9 16 19 18 21 23 26 28 24 22 23 25 31
12 15 18 18 15 11 11 15 15 17 17 14 14 16 21 23 26 33 35 36 36 32 30 26 31 37 36 35 27 20 11 11 16 19 19 20 21 21 22 23 21 23 22
11 9 10 17 21 18 11 12 15 15 17 15 14 15 18 22 29 30 27 28 33 24 21 27 35 34 37 36 35 33 28 19 15 14 13 13 14 16 16 20 19 21 19
9 10 8 7 8 11 14 13 12 12 17 22 19 20 21 24 30 33 29 28 36 33 27 29 30 31 31 33 33 33 31 33 15 9 10 10 13 13 10 13 5 8 12
13 14 15 5 8 9 10 11 9 12 13 21 26 26 25 28 35 36 32 29 32 33 32 29 26 30 30 33 31 31 31 33 33 10 12 14 14 16 18 11 9 7 10
18 22 22 15 15 15 11 15 9 11 14 19 23 28 30 29 33 36 33 28 31 34 31 27 27 29 29 32 33 34 34 35 34 30 15 10 13 16 13 11 11 12 16
20 20 20 21 22 21 23 24 22 22 19 18 22 29 30 29 28 31 33 31 27 28 28 27 29 28 29 32 33 33 32 32 32 30 27 24 17 11 11 12 13 20 19
19 19 20 21 22 22 23 22 23 21 21 21 21 27 29 27 31 31 31 29 27 27 28 28 29 30 30 31 34 35 35 36 34 31 30 27 25 20 8 12 15 17 15
17 18 19 21 21 20 20 21 21 20 20 21 21 25 30 24 26 26 28 29 29 28 28 29 29 31 31 34 35 36 35 33 34 33 32 31 29 22 19 11 15 17 17
16 18 19 19 20 22 20 21 22 21 20 20 21 22 26 25 25 26 26 28 28 28 28 27 27 31 30 33 36 36 37 39 38 36 37 34 31 26 19 11 14 19 21
17 17 19 21 22 23 24 24 24 23 20 21 21 22 23 26 24 27 26 28 28 28 29 28 28 32 32 30 34 35 36 40 41 40 37 31 30 29 14 12 13 19 20
19 20 18 17 18 20 22 22 23 22 20 20 21 23 23 24 24 26 26 27 28 29 27 29 29 32 33 32 35 36 40 44 43 42 38 32 30 32 12 13 18 21 22
17 18 18 17 15 18 19 17 17 20 20 20 21 23 23 23 24 25 27 28 28 28 30 29 29 36 34 31 36 39 43 48 45 42 42 39 36 33 20 6 11 19 21
14 15 17 16 15 16 18 17 19 19 18 20 22 22 21 24 26 26 28 29 30 29 30 30 31 31 31 31 37 39 43 46 47 43 43 41 40 37 30 18 11 14 16
Wind_Direction
96 104 115 119 114 108 93 58 32 11 355 350 352 343 336 328 319 303 305 300 289 287 289 290 290 292 291 289 292 283 279 280 283 290 287 296 295 291 293 289 287 288 294
67 83 104 109 97 77 32 23 355 340 337 331 337 333 330 323 315 307 306 303 293 292 285 283 284 286 282 285 285 280 276 278 281 287 289 283 279 292 303 310 299 287 283
52 49 50 39 13 343 326 317 323 318 328 336 328 325 322 316 314 311 305 301 299 293 290 286 285 283 273 274 278 276 277 279 281 279 286 294 295 289 288 289 302 294 281
31 23 13 350 320 299 280 297 347 36 12 340 331 328 326 322 320 317 310 307 306 305 299 293 288 278 270 270 270 266 264 266 265 265 270 270 273 285 291 295 288 291 284
24 17 16 26 36 49 52 61 31 2 350 340 331 329 328 325 329 322 321 316 309 306 305 299 290 284 277 271 262 263 263 264 264 264 268 270 265 266 270 282 284 293 288
33 35 21 16 20 26 24 5 354 349 342 337 333 328 327 328 330 332 330 318 305 294 294 291 286 280 273 266 262 257 254 258 262 267 271 269 265 255 264 263 267 273 293
27 12 358 349 347 353 351 348 348 343 338 334 334 336 334 331 334 335 329 325 314 301 290 286 284 280 276 265 259 259 258 258 256 256 259 262 263 255 258 263 264 270 268
9 358 354 342 340 339 340 342 339 338 333 334 339 340 332 333 345 341 328 324 317 307 298 290 287 286 284 273 256 251 249 251 255 253 247 256 256 255 252 255 263 271 275
6 353 343 343 341 337 339 334 328 329 329 328 333 337 337 338 341 339 333 330 316 309 312 314 302 292 297 289 278 248 246 250 253 260 260 262 262 257 256 257 263 262 262
355 346 342 341 335 341 337 329 328 323 324 332 332 336 344 336 339 338 334 334 316 320 332 335 331 315 311 308 289 268 246 248 250 251 252 256 256 257 256 253 250 249 258
359 357 349 341 334 335 340 349 347 348 347 353 344 353 346 344 343 339 339 337 324 320 317 320 322 326 331 320 300 269 254 253 253 247 247 244 248 250 251 254 249 231 243
5 9 6 3 1 351 5 347 350 356 355 353 354 354 352 349 345 338 349 352 354 333 323 324 332 339 333 333 327 304 272 262 259 254 236 236 237 242 246 248 238 234 242
14 22 16 15 13 21 15 9 19 12 7 357 8 353 343 351 344 346 352 2 3 349 347 343 345 355 356 345 351 342 332 266 252 241 240 240 235 244 247 246 237 238 234
23 34 33 27 18 16 26 22 27 21 9 353 5 352 351 349 348 350 353 2 355 5 358 349 2 7 3 1 345 340 318 274 250 238 241 246 246 245 238 235 231 227 214
351 5 31 48 40 38 46 34 35 37 33 24 9 0 358 352 349 354 359 5 3 358 4 16 14 8 3 357 355 355 343 302 259 256 245 247 239 242 242 252 208 193 190
359 351 345 358 24 32 36 41 47 43 38 36 35 26 17 19 12 14 18 24 22 21 24 24 12 6 5 355 352 349 348 347 296 243 238 226 256 270 273 292 297 200 170
15 17 17 330 340 352 5 13 5 25 28 25 27 30 24 24 25 22 23 26 24 25 28 17 9 5 360 356 351 354 347 346 352 275 229 231 242 259 278 277 282 221 185
46 57 55 44 22 27 12 8 23 21 23 21 21 22 24 23 25 24 21 24 23 22 20 12 5 3 1 357 352 351 351 352 352 353 348 264 256 252 254 250 247 209 176
56 57 57 52 50 49 48 41 46 39 30 22 18 18 16 20 24 23 23 27 19 14 10 9 5 3 360 359 355 353 352 351 351 350 349 349 344 316 253 238 208 163 166
56 57 59 50 45 42 39 34 33 34 26 21 27 23 13 18 22 20 18 17 15 13 8 4 3 3 1 360 358 355 355 354 354 351 345 343 341 343 268 210 163 154 168
59 55 55 50 43 40 38 35 33 32 26 24 22 23 23 24 21 18 16 13 10 8 6 2 3 2 3 1 360 357 355 354 351 349 347 345 347 339 4 157 150 148 142
60 59 53 50 47 43 38 39 36 33 25 20 17 17 19 21 20 17 14 10 8 7 6 3 3 4 2 2 358 357 356 352 351 348 344 343 344 345 360 18 146 141 134
62 65 61 56 50 43 40 40 35 31 23 20 16 15 16 16 14 12 11 7 6 5 5 5 5 3 3 2 1 1 358 352 345 345 341 341 346 352 3 22 106 122 122
70 64 63 59 49 44 39 36 30 27 22 19 17 15 14 12 12 6 5 4 4 4 4 3 1 1 1 1 0 0 360 360 359 360 3 352 357 0 16 36 98 110 110
76 67 63 59 50 47 41 36 23 20 17 14 10 10 10 9 8 6 3 1 1 359 360 1 1 358 2 1 359 358 2 9 10 13 12 7 7 16 24 309 105 110 113
80 73 65 58 57 47 40 35 24 14 14 8 6 5 11 7 3 3 1 358 359 357 356 356 358 357 359 358 357 357 359 8 12 16 16 11 12 7 8 18 165 133 134